Tracking 28790 objects as of 19-Apr-2024
HD Live streaming from Space Station
objects crossing your sky now

CZ-2C R/B

Track CZ-2C R/B now!
10-day predictions


NORAD ID: 37766
Int'l Code: 2011-039B
Perigee: 643.9 km
Apogee: 704.7 km
Inclination: 98.2 °
Period: 98.1 minutes
Semi major axis: 7045 km
RCS: 8.199 m2 (large)
Launch date: July 29, 2011
Source: People's Republic of China (PRC)
Launch site: Jiuquan Satellite Launch Center, China (JSC)

Note: This is a ROCKET BODY
Your satellite tracking list
Your tracking list is empty




NASA's NSSDC Master Catalog

Two Line Element Set (TLE):
1 37766U 11039B   24109.69537171  .00001981  00000-0  34905-3 0  9991
2 37766  98.1904 358.4673 0043193 294.7235  64.9477 14.68094263680857
Source of the keplerian elements: AFSPC